Le nostre stazioni meteo in Italia

Pubblicità
Il mio iltempo24.it
Modena, Italia (16128): Temperatura & dewpoint: 27.06.2020 12:00:00 - 03.07.2020 12:00:00 (CEST)Modena, Italia (16128): velocità del vento: 27.06.2020 12:00:00 - 03.07.2020 12:00:00 (CEST)Modena, Italia (16128): direzione del vento: 27.06.2020 12:00:00 - 03.07.2020 12:00:00 (CEST)Modena, Italia (16128): reduced air pressure: 27.06.2020 12:00:00 - 03.07.2020 12:00:00 (CEST)Modena, Italia (16128): precipitazioni: 27.06.2020 12:00:00 - 03.07.2020 12:00:00 (CEST)
Data & Tempo tt [°C] td [°C] ff [km/h] ff [kn] dd ppp [hPa] rr [mm]
03.07.2020 12:00:00 - - - - - - -
03.07.2020 11:00:00 25,7 17,1 4 2 E 1012,5 0,0
03.07.2020 10:00:00 24,8 17,0 1 1 O 1012,2 0,0
03.07.2020 09:00:00 23,7 16,2 2 1 OSO 1012,0 0,0
03.07.2020 08:00:00 23,4 15,7 0 0 E 1011,8 0,0
03.07.2020 07:00:00 21,2 16,2 1 0 SSE 1011,6 0,0
03.07.2020 06:00:00 21,0 15,8 0 0 NNO 1011,4 0,0
03.07.2020 05:00:00 21,4 14,8 2 1 NNE 1011,2 0,0
03.07.2020 04:00:00 20,6 15,4 10 6 SSE 1011,3 0,0
03.07.2020 03:00:00 20,3 15,9 6 3 SE 1011,5 0,0
03.07.2020 02:00:00 20,9 16,9 15 8 ENE 1010,8 0,0
03.07.2020 01:00:00 24,6 19,4 11 6 NNO 1009,9 0,0
03.07.2020 00:00:00 25,1 19,0 10 5 E 1008,8 0,0
02.07.2020 23:00:00 26,2 19,1 15 8 E 1008,7 0,0
02.07.2020 22:00:00 27,3 19,4 15 8 E 1008,7 0,0
02.07.2020 21:00:00 28,8 18,0 11 6 E 1008,3 0,0
02.07.2020 20:00:00 30,5 15,8 12 6 ENE 1008,6 0,0
02.07.2020 19:00:00 31,1 15,9 6 3 ENE 1008,6 0,0
02.07.2020 18:00:00 31,1 15,5 5 3 ENE 1008,6 0,0
02.07.2020 17:00:00 32,3 14,9 5 3 NNO 1009,0 0,0
02.07.2020 16:00:00 31,3 14,4 7 4 NO 1009,9 0,0
02.07.2020 15:00:00 30,3 14,4 7 4 ONO 1010,4 0,0
02.07.2020 14:00:00 30,2 15,1 5 3 NO 1011,1 0,0
02.07.2020 13:00:00 29,0 15,5 5 3 NO 1011,6 0,0
02.07.2020 12:00:00 27,3 15,6 5 3 NNO 1011,9 0,0
02.07.2020 11:00:00 26,0 15,7 11 6 NO 1011,9 0,0
02.07.2020 10:00:00 24,9 16,1 10 5 NO 1011,9 0,0
02.07.2020 09:00:00 23,4 16,4 10 6 ONO 1012,1 0,0
02.07.2020 08:00:00 21,9 17,1 9 5 ONO 1012,2 0,0
02.07.2020 07:00:00 21,3 17,1 11 6 ONO 1012,1 0,0
02.07.2020 06:00:00 21,6 16,1 11 6 ONO 1011,6 0,0
02.07.2020 05:00:00 22,0 15,6 8 5 ONO 1011,0 0,0
02.07.2020 04:00:00 22,4 14,0 1 1 N 1010,4 0,0
02.07.2020 03:00:00 23,5 16,8 13 7 O 1011,4 0,0
02.07.2020 02:00:00 23,9 16,9 0 0 E 1011,6 0,0
02.07.2020 01:00:00 24,0 19,9 1 0 O 1011,9 0,0
02.07.2020 00:00:00 24,1 20,6 0 0 SE 1011,6 0,0
01.07.2020 23:00:00 23,6 20,5 0 0 ESE 1011,1 0,0
01.07.2020 22:00:00 24,1 20,6 - - - 1010,8 0,0
01.07.2020 21:00:00 23,7 19,0 3 2 SSE 1010,2 0,0
01.07.2020 20:00:00 23,1 20,1 8 5 NE 1010,2 11,6
01.07.2020 19:00:00 26,4 16,3 13 7 SSO 1009,6 0,0
01.07.2020 18:00:00 32,1 15,6 8 4 N 1009,2 0,0
01.07.2020 17:00:00 32,6 14,7 7 4 NO 1009,7 0,0
01.07.2020 16:00:00 33,1 14,2 5 3 NE 1010,0 0,0
01.07.2020 15:00:00 32,4 14,5 3 2 E 1010,3 0,0
01.07.2020 14:00:00 31,0 15,8 6 3 N 1011,0 0,0
01.07.2020 13:00:00 31,1 15,9 7 4 ONO 1011,0 0,0
01.07.2020 12:00:00 29,0 16,5 5 3 NNO 1011,8 0,0
01.07.2020 11:00:00 28,0 16,0 13 7 ONO 1012,2 0,0
01.07.2020 10:00:00 26,8 15,2 13 7 ONO 1012,3 0,0
01.07.2020 09:00:00 25,1 15,1 12 7 ONO 1012,5 0,0
01.07.2020 08:00:00 23,9 14,3 11 6 O 1012,2 0,0
01.07.2020 07:00:00 23,3 12,3 5 3 ONO 1012,3 0,0
01.07.2020 06:00:00 22,5 12,2 8 5 NO 1012,0 0,0
01.07.2020 05:00:00 23,0 12,0 3 2 ONO 1011,8 0,0
01.07.2020 04:00:00 24,0 11,3 7 4 NO 1011,6 0,0
01.07.2020 03:00:00 24,9 12,5 - - - 1011,6 0,0
01.07.2020 02:00:00 25,3 11,5 0 0 NO 1011,7 0,0
01.07.2020 01:00:00 25,9 11,6 5 3 ONO 1011,7 0,0
01.07.2020 00:00:00 26,8 11,7 9 5 ONO 1011,6 0,0
30.06.2020 23:00:00 28,7 12,2 15 8 ONO 1011,3 0,0
30.06.2020 22:00:00 30,3 15,2 0 0 N 1010,7 0,0
30.06.2020 21:00:00 31,0 14,6 1 1 NE 1010,2 0,0
30.06.2020 20:00:00 31,8 14,9 1 1 O 1010,2 0,0
30.06.2020 19:00:00 31,8 14,0 0 0 ENE 1010,2 0,0
30.06.2020 18:00:00 32,5 14,1 6 3 ENE 1010,5 0,0
30.06.2020 17:00:00 33,0 14,1 1 1 E 1010,8 0,0
30.06.2020 16:00:00 31,3 14,0 7 4 ENE 1011,2 0,0
30.06.2020 15:00:00 32,3 14,0 7 4 ONO 1011,4 0,0
30.06.2020 14:00:00 31,5 13,7 5 3 NO 1011,6 0,0
30.06.2020 13:00:00 30,4 15,3 3 1 NNO 1012,0 0,0
30.06.2020 12:00:00 28,7 16,3 4 2 N 1012,3 0,0
30.06.2020 11:00:00 27,4 17,3 3 2 N 1012,3 0,0
30.06.2020 10:00:00 26,3 17,1 3 1 N 1012,3 0,0
30.06.2020 09:00:00 24,3 17,1 3 2 E 1012,5 0,0
30.06.2020 08:00:00 23,2 16,7 3 1 E 1012,2 0,0
30.06.2020 07:00:00 22,9 16,7 1 1 ENE 1011,8 0,0
30.06.2020 06:00:00 21,5 16,7 0 0 E 1011,6 0,0
30.06.2020 05:00:00 21,8 17,0 0 0 N 1011,3 0,0
30.06.2020 04:00:00 21,8 17,4 1 1 NE 1011,0 0,0
30.06.2020 03:00:00 22,3 17,7 5 3 E 1010,8 0,0
30.06.2020 02:00:00 22,6 17,7 11 6 ENE 1010,9 0,0
30.06.2020 01:00:00 23,6 19,3 13 7 ENE 1011,0 0,0
30.06.2020 00:00:00 24,2 19,7 14 7 ENE 1010,8 0,0
29.06.2020 23:00:00 27,9 13,4 3 1 N 1010,4 0,0
29.06.2020 22:00:00 28,6 12,9 2 1 NO 1009,9 0,0
29.06.2020 21:00:00 29,5 12,4 10 5 NO 1009,0 0,0
29.06.2020 20:00:00 30,6 12,9 10 5 ONO 1008,8 0,0
29.06.2020 19:00:00 31,2 12,1 19 10 NO 1008,5 0,0
29.06.2020 18:00:00 32,2 12,4 16 9 NO 1008,6 0,0
29.06.2020 17:00:00 32,2 12,4 20 11 NO 1008,4 0,0
29.06.2020 16:00:00 32,2 11,4 19 10 ONO 1008,4 0,0
29.06.2020 15:00:00 32,3 12,0 16 9 ONO 1008,9 0,0
29.06.2020 14:00:00 31,6 12,9 14 8 ONO 1009,7 0,0
29.06.2020 13:00:00 30,1 12,1 9 5 ONO 1010,2 0,0
29.06.2020 12:00:00 29,1 11,6 10 5 NO 1010,5 0,0
29.06.2020 11:00:00 28,5 11,6 6 3 NO 1010,8 0,0
29.06.2020 10:00:00 27,6 11,6 6 3 ONO 1011,0 0,0
29.06.2020 09:00:00 26,5 11,8 2 1 NNO 1011,3 0,0
29.06.2020 08:00:00 26,4 10,1 0 0 NO 1011,4 0,0
29.06.2020 07:00:00 23,5 11,5 6 4 SSO 1011,4 0,0
29.06.2020 06:00:00 23,3 10,7 7 4 ONO 1011,5 0,0
29.06.2020 05:00:00 22,7 11,7 3 1 ONO 1011,6 0,0
29.06.2020 04:00:00 23,1 12,7 6 3 ONO 1012,1 0,0
29.06.2020 03:00:00 24,0 13,5 6 4 NO 1012,3 0,0
29.06.2020 02:00:00 25,5 12,7 3 1 ONO 1012,6 0,0
29.06.2020 01:00:00 26,2 12,3 3 2 O 1013,0 0,0
29.06.2020 00:00:00 27,1 12,3 8 4 NO 1012,9 0,0
28.06.2020 23:00:00 28,6 12,9 10 6 ONO 1013,1 0,0
28.06.2020 22:00:00 30,4 13,7 1 1 N 1012,8 0,0
28.06.2020 21:00:00 31,3 13,1 1 1 N 1012,7 0,0
28.06.2020 20:00:00 32,5 12,7 1 0 N 1012,7 0,0
28.06.2020 19:00:00 32,9 12,5 4 2 N 1012,9 0,0
28.06.2020 18:00:00 33,6 12,6 3 1 N 1013,2 0,0
28.06.2020 17:00:00 32,9 12,0 6 3 NNO 1013,8 0,0
28.06.2020 16:00:00 32,6 11,7 6 4 NNO 1014,3 0,0
28.06.2020 15:00:00 32,0 11,7 5 3 NNO 1014,7 0,0
28.06.2020 14:00:00 31,4 12,7 5 3 NE 1015,3 0,0
28.06.2020 13:00:00 31,5 13,3 4 2 SE 1015,8 0,0
28.06.2020 12:00:00 28,8 13,5 5 3 NNO 1016,3 0,0
28.06.2020 11:00:00 28,0 13,9 7 4 ONO 1016,3 0,0
28.06.2020 10:00:00 26,1 14,2 11 6 ONO 1016,8 0,0
28.06.2020 09:00:00 24,6 14,4 11 6 ONO 1016,9 0,0
28.06.2020 08:00:00 22,7 14,0 10 5 ONO 1016,8 0,0
28.06.2020 07:00:00 21,9 14,0 8 4 ONO 1016,5 0,0
28.06.2020 06:00:00 22,1 13,7 5 3 ONO 1016,3 0,0
28.06.2020 05:00:00 22,7 13,5 6 4 NO 1016,0 0,0
28.06.2020 04:00:00 23,1 13,6 4 2 ONO 1016,0 0,0
28.06.2020 03:00:00 23,6 13,5 10 6 NO 1015,9 0,0
28.06.2020 02:00:00 24,5 12,4 9 5 ONO 1016,0 0,0
28.06.2020 01:00:00 25,6 12,8 12 6 ONO 1015,9 0,0
28.06.2020 00:00:00 26,8 12,8 8 4 ONO 1015,8 0,0
27.06.2020 23:00:00 27,2 12,4 6 4 O 1015,3 0,0
27.06.2020 22:00:00 28,8 11,4 8 4 NNO 1014,9 0,0
27.06.2020 21:00:00 30,0 10,5 0 0 NNO 1014,2 0,0
27.06.2020 20:00:00 31,0 11,4 9 5 NO 1014,2 0,0
27.06.2020 19:00:00 31,9 10,0 9 5 NO 1014,3 0,0
27.06.2020 18:00:00 32,8 8,3 4 2 O 1014,2 0,0
27.06.2020 17:00:00 32,0 8,3 4 2 SE 1014,3 0,0
27.06.2020 16:00:00 31,8 10,5 8 5 SE 1014,4 0,0
27.06.2020 15:00:00 31,3 10,6 2 1 NE 1015,2 0,0
27.06.2020 14:00:00 30,5 11,0 7 4 N 1015,8 0,0
27.06.2020 13:00:00 29,0 12,0 8 4 N 1016,5 0,0
27.06.2020 12:00:00 28,3 12,6 6 3 NO 1016,5 0,0

tt = Temperatura
td = dewpoint
ff = velocità del vento
dd = direzione del vento
ppp = reduced air pressure
rr = precipitazioni

Stazioni seguenti

WeatherPro
AMSI
MeteoEarth